Retour au catalogue

MOLNIYA 3-27

ActifCommunicationsHEO
NORAD 16393·PAYLOAD·🇷🇺 Russia

Lancé Dec 24, 1985 depuis Plesetsk Cosmodrome

Loading…

Prochains Passages (prochaines 24 heures)

TLE

FraisSource: Space-Track

Époque: Sep 9, 2026, 20:43 UTC

1 16393U 85117A   26252.86370023  .00000117  00000-0 -71667-2 0  9999
2 16393  61.9256 211.9399 7111296 253.0913  23.4957  2.12409016307002

Suivez MOLNIYA 3-27 en temps réel avec AllMySat

Download on the App Store